Home   Weather   Québec   Past weeks

Flag for Canada Past Weather in Québec, Quebec, Canada — Yesterday and Last 2 Weeks

Now
50 °F

Overcast.


Feels Like: 45 °F
Forecast: 45 / 59 °F
Wind: 14 mph from East

Location: Quebec Weather Station

Current Time: Sep 28, 2016 at 11:27:42 AM

Latest Report: Sep 28, 2016 at 11:00 AM


Visibility: 20 mi

Pressure: 30.37 "Hg

Humidity: 82%

Dew Point: 45 °F

Location of QuébecLocation

Past Weather in Québec — Graph

°F

Québec Temperature Yesterday

Maximum temperature yesterday: 55 °F (at 2:00 PM)
Minimum temperature yesterday: 48 °F (at 12:00 AM)
Average temperature yesterday: 50 °F

High & Low Weather Summary for the Past Weeks

 TemperatureHumidityPressure
High75 °F (Sep 13, 4:00 PM)100% (Sep 16, 6:00 AM)30.36 "Hg (Sep 16, 6:00 AM)
Low36 °F (Sep 26, 5:00 AM)41% (Sep 24, 1:00 PM)29.80 "Hg (Sep 18, 3:00 AM)
Average55 °F80%30.07 "Hg
* Reported Sep 13 10:00 AM — Sep 28 10:00 AM, Québec, Weather by CustomWeather, © 2016

Note: Actual official high and low records may vary slightly from our data, if they occured in-between our weather recording intervals... More about our weather records

Advertising

Québec Weather History for the Previous 24 Hours

Scroll right to see more
 ConditionsComfort  
Time TempWeatherWind HumidityBarometerVisibility
10:00 AM
Wed, Sep 28
50 °FOvercast.18 mph82%30.36 "Hg20 mi
9:00 AM50 °FMostly cloudy.18 mph82%30.33 "Hg20 mi
8:00 AM50 °FMostly cloudy.13 mph88%30.30 "Hg20 mi
7:00 AM50 °FMostly cloudy.14 mph88%30.26 "Hg15 mi
6:00 AM50 °FOvercast.15 mph88%30.23 "Hg15 mi
5:00 AM50 °FOvercast.15 mph82%30.22 "Hg15 mi
4:00 AM50 °FOvercast.13 mph82%30.19 "Hg15 mi
3:00 AM50 °FPartly cloudy.8 mph88%30.18 "Hg15 mi
2:00 AM50 °FPassing clouds.14 mph88%30.15 "Hg15 mi
1:00 AM50 °FMostly cloudy.12 mph82%30.16 "Hg15 mi
12:00 AM50 °FMostly cloudy.13 mph88%30.14 "Hg15 mi
11:00 PM
Tue, Sep 27
50 °FPassing clouds.10 mph88%30.11 "Hg15 mi
10:00 PM50 °FPassing clouds.14 mph88%30.09 "Hg15 mi
9:00 PM50 °FPassing clouds.17 mph82%30.09 "Hg15 mi
8:00 PM50 °FPassing clouds.10 mph82%30.06 "Hg15 mi
7:00 PM50 °FPassing clouds.13 mph82%30.02 "Hg15 mi
6:00 PM52 °FScattered clouds.16 mph77%29.98 "Hg30 mi
5:00 PM54 °FPartly sunny.16 mph77%29.95 "Hg30 mi
4:00 PM55 °FBroken clouds.15 mph77%29.95 "Hg30 mi
3:00 PM55 °FBroken clouds.12 mph77%29.94 "Hg30 mi
2:00 PM55 °FPartly sunny.9 mph82%29.93 "Hg30 mi
1:00 PM54 °FDrizzle. Mostly cloudy.6 mph88%29.91 "Hg15 mi
12:00 PM52 °FMostly cloudy.10 mph94%29.90 "Hg12 mi
11:00 AM52 °FDrizzle. Fog.8 mph94%29.89 "Hg7 mi
Weather by CustomWeather, © 2016

See weather overviewHow to use our weather pages